This is the latest recevied weather packets stored in our database for station/object W0VI. If no packets are shown the sender has not sent any weather packets the latest 10 day(s).
| Time | Temp. | Humidity | Pressure | Rain* | Wind** | Luminosity | Snow |
|---|---|---|---|---|---|---|---|
| 1778096396 | 5.56° C | 51% | 1016.2 hPa | 0 mm | - | 251 W/m² | - |
| 1778096094 | 5.56° C | 51% | 1016.5 hPa | 0 mm | - | 260 W/m² | - |
| 1778095785 | 5.56° C | 51% | 1016.5 hPa | 0 mm | - | 255 W/m² | - |
| 1778095481 | 5.56° C | 51% | 1016.3 hPa | 0 mm | - | 255 W/m² | - |
| 1778095173 | 5.56° C | 52% | 1016.6 hPa | 0 mm | - | 257 W/m² | - |
| 1778094869 | 5.56° C | 52% | 1016.6 hPa | 0 mm | - | 241 W/m² | - |
| 1778094565 | 5.56° C | 52% | 1016.5 hPa | 0 mm | - | 245 W/m² | - |
| 1778094262 | 5.56° C | 51% | 1016.6 hPa | 0 mm | - | 202 W/m² | - |
| 1778093954 | 6.11° C | 51% | 1016.6 hPa | 0 mm | - | 285 W/m² | - |
| 1778093651 | 5.56° C | 52% | 1016.5 hPa | 0 mm | - | 360 W/m² | - |
| 1778093348 | 5° C | 51% | 1016.5 hPa | 0 mm | - | 269 W/m² | - |
| 1778093045 | 5° C | 53% | 1016.8 hPa | 0 mm | - | 246 W/m² | - |
| 1778092742 | 5.56° C | 52% | 1016.6 hPa | 0 mm | - | 246 W/m² | - |
| 1778092437 | 5.56° C | 52% | 1016.6 hPa | 0 mm | - | 252 W/m² | - |
| 1778092135 | 5° C | 53% | 1016.8 hPa | 0 mm | - | 232 W/m² | - |
| 1778091832 | 5.56° C | 52% | 1016.7 hPa | 0 mm | - | 196 W/m² | - |
| 1778091529 | 5.56° C | 52% | 1016.5 hPa | 0 mm | - | 230 W/m² | - |
| 1778091227 | 5.56° C | 51% | 1016.8 hPa | 0 mm | - | 281 W/m² | - |
| 1778090923 | 5° C | 53% | 1016.7 hPa | 0 mm | - | 289 W/m² | - |
| 1778090620 | 5° C | 53% | 1016.8 hPa | 0 mm | - | 292 W/m² | - |
| 1778090316 | 5° C | 52% | 1016.9 hPa | 0 mm | - | 317 W/m² | - |
| 1778090013 | 5° C | 54% | 1016.8 hPa | 0 mm | - | 230 W/m² | - |
| 1778089710 | 5° C | 53% | 1016.9 hPa | 0 mm | - | 233 W/m² | - |
| 1778089408 | 5° C | 53% | 1016.9 hPa | 0 mm | - | 300 W/m² | - |
| 1778089105 | 5° C | 53% | 1016.8 hPa | 0 mm | - | 314 W/m² | - |
* Rain latest hour (hover to see other rain measurements)
** Current wind speed in m/s (hover to see current wind gust speed)